Regional Weather Roundup
Issued by NWS

Home | Current Version | Previous Version | Text Only | Print | Product List | Glossary Off
Versions: 1 2 3 4 5 6 7 8 9 10 11 12 13 14 15 16 17 18 19 20 21 22 23 24 25 26 27

000
ASUS45 KPSR 182110
RWRAZ

ARIZONA HOURLY REGIONAL WEATHER ROUNDUP
NATIONAL WEATHER SERVICE PHOENIX AZ
200 PM MST MON SEP 18 2017

NOTE: FAIR INDICATES FEW OR NO CLOUDS BELOW 12,000 FEET WITH NO
SIGNIFICANT WEATHER AND/OR OBSTRUCTIONS TO VISIBILITY.

AZZ001>003-036-182200-
NORTHWEST ARIZONA

CITY           SKY/WX    TMP DP  RH WIND       PRES   REMARKS
BULLHEAD CITY  SUNNY     97  39  13 S17G32    29.79F
KINGMAN        MOSUNNY   86  34  15 S13G28    29.98F
$$

AZZ004>008-015-016-018-182200-
NORTH CENTRAL ARIZONA

CITY           SKY/WX    TMP DP  RH WIND       PRES   REMARKS
GRAND CANYON   SUNNY     73  25  16 SW20G29   30.17F
WILLIAMS       SUNNY     73  25  16 SW15G25   30.18F
PRESCOTT       SUNNY     79  24  13 S12G26    30.10F
FLAGSTAFF      SUNNY     70  24  17 SW20G30   30.21F
PAYSON           N/A     81  19  10 S12G21    30.13F
PAGE           SUNNY     84  28  13 N8        29.96F
$$

AZZ009>014-017-182200-
NORTHEAST ARIZONA

CITY           SKY/WX    TMP DP  RH WIND       PRES   REMARKS
WINSLOW        SUNNY     87  18   8 SW13G28   30.06F
SAINT JOHNS    SUNNY     84  22  10 SW18G29   30.11F
WINDOW ROCK    SUNNY     78  23  13 S17G23    30.17F
SHOW LOW       SUNNY     77  25  14 S23G30    30.19F
$$

AZZ540-542>544-546-548-182200-
GREATER PHOENIX AREA

CITY           SKY/WX    TMP DP  RH WIND       PRES   REMARKS
PHOENIX        SUNNY     97  32  10 S9        29.86F
BUCKEYE        SUNNY     93  30  10 S6        29.87F
GLENDALE       SUNNY     95  34  11 SE6       29.89F
LUKE AFB       SUNNY     94  34  12 S5        29.86F
DEER VALLEY    SUNNY     93  29  10 S9        29.89F
SCOTTSDALE     SUNNY     93  27   9 VRB5      29.91F
MESA-FALCON    SUNNY     93  32  11 S12       29.90F
MESA-GATEWAY   SUNNY     93  27   9 W6        29.90F
CHANDLER       SUNNY     95  25   8 SE6       29.89
$$

AZZ539-553-182200-
SOUTHWEST MARICOPA COUNTY AND PINAL COUNTY

CITY           SKY/WX    TMP DP  RH WIND       PRES   REMARKS
CASA GRANDE    NOT AVBL
GILA BEND      SUNNY     98  23   7 SW10G21   29.83F
$$

AZZ503-504-507>509-182200-
SOUTHEAST ARIZONA

CITY           SKY/WX    TMP DP  RH WIND       PRES   REMARKS
TUCSON         SUNNY     95  44  17 N5        29.97F
DAVIS-MONTHAN  SUNNY     97  44  15 W10       29.95F
RYAN FIELD     SUNNY     97  37  12 SW13      29.95F
NOGALES        SUNNY     90  53  28 SW14G21   30.06F
SIERRA VISTA   MOSUNNY   88  48  25 W9        30.12F
DOUGLAS        MOSUNNY   91  46  21 W13G20    30.05F
SAFFORD        SUNNY     93  38  14 CALM      29.97F
$$

AZZ532-182200-
SOUTHWEST ARIZONA

CITY           SKY/WX    TMP DP  RH WIND       PRES   REMARKS
YUMA           NOT AVBL
$$

CAZ041-043-047-048-061-525>527-560>570-182200-
SOUTHERN CALIFORNIA

CITY           SKY/WX    TMP DP  RH WIND       PRES   REMARKS
DOWNTOWN L.A.  SUNNY     74  61  63 CALM      29.92F
L.A. AIRPORT   MOSUNNY   73  62  68 W14       29.94F
SAN DIEGO      FAIR      75  60  59 W12       29.94F
BURBANK        SUNNY     76  58  53 SE6       29.92F
ONTARIO        SUNNY     80  57  45 W10       29.91F
RIVERSIDE      SUNNY     82  60  47 W10G16    29.90F
PALM SPRINGS   SUNNY     94  52  24 VRB3      29.83F
IMPERIAL       SUNNY     96  54  24 S8        29.77F
BLYTHE         SUNNY     96  46  18 S13G20    29.81F
NEEDLES        SUNNY     98  40  13 SW22G28   29.82F
$$

NVZ020-UTZ003-182200-
SOUTHERN NEVADA-UTAH

CITY           SKY/WX    TMP DP  RH WIND       PRES   REMARKS
LAS VEGAS      MOSUNNY   92  38  15 S16G23    29.83F
SALT LAKE CITY PTSUNNY   84  35  17 S23G33    29.81F
$$

NMZ009-TXZ055-182200-
NEW MEXICO-WEST TEXAS

CITY           SKY/WX    TMP DP  RH WIND       PRES   REMARKS
ALBUQUERQUE    SUNNY     82  33  17 SW10      30.10F
EL PASO        MOSUNNY   94  46  19 SW12      30.03F
$$


........................KEY........................
SKY/WX - SKY CONDITION/WEATHER
TMP    - TEMPERATURE IN FAHRENHEIT
DP     - DEW POINT IN FAHRENHEIT
RH     - RELATIVE HUMIDITY IN PERCENT
WIND   - DIRECTION AND SPEED IN MILES PER HOUR (MPH)
VRB    - VARIABLE WIND DIRECTION
PRES   - MEAN SEA LEVEL PRESSURE IN INCHES OF MERCURY
         F - FALLING PRESSURE   R - RISING PRESSURE
         S - STEADY PRESSURE
VSB    - VISIBILITY IN MILES
HX     - HEAT INDEX IN FAHRENHEIT
WCI    - WIND CHILL INDEX IN FAHRENHEIT
TC     - TEMPERATURE IN CELSIUS WHICH IS ALSO KNOWN AS
         TEMPERATURE IN CENTIGRADE
AFB    - AIR FORCE BASE
         LUKE AFB IS LUKE AIR FORCE BASE
         DAVIS-MONTHAN IS DAVIS-MONTHAN AIR FORCE BASE
NAS    - NAVAL AIR STATION
         EL CENTRO NAS IS EL CENTRO NAVAL AIR STATION
N/A    - NOT AVAILABLE





USA.gov is the U.S. government's official web portal to all federal, state and local government web resources and services.